�������l�o���
Date,Time,MP-1(��Sv/h),MP-2(��Sv/h),MP-3(��Sv/h),MP-4(��Sv/h),MP-5(��Sv/h),MP-6(��Sv/h),MP-7(��Sv/h),MP-8(��Sv/h),����,����(m/s),���J
2023/01/21,00:00,0.563,0.817,0.514,1.044,0.724,0.323,0.584,0.556,��,7.5,��
2023/01/21,00:10,0.564,0.814,0.512,1.046,0.721,0.323,0.586,0.555,���k��,11.6,��
2023/01/21,00:20,0.562,0.814,0.510,1.044,0.724,0.323,0.585,0.555,���k��,8.8,��
2023/01/21,00:30,0.563,0.815,0.511,1.042,0.722,0.322,0.583,0.556,���k��,7.2,��
2023/01/21,00:40,0.563,0.812,0.511,1.045,0.723,0.321,0.584,0.555,���k��,10.1,��
2023/01/21,00:50,0.563,0.813,0.510,1.045,0.722,0.320,0.584,0.557,���k��,10.1,��
2023/01/21,01:00,0.563,0.815,0.510,1.046,0.723,0.320,0.585,0.556,���k��,10.8,��
2023/01/21,01:10,0.564,0.813,0.510,1.044,0.722,0.320,0.584,0.557,���k��,9.4,��
2023/01/21,01:20,0.563,0.815,0.511,1.045,0.722,0.322,0.585,0.556,���k��,12.5,��
2023/01/21,01:30,0.563,0.813,0.512,1.044,0.722,0.320,0.585,0.556,���k��,9.7,��
2023/01/21,01:40,0.562,0.813,0.509,1.043,0.723,0.322,0.582,0.556,���k��,10.1,��
2023/01/21,01:50,0.562,0.814,0.510,1.043,0.722,0.320,0.584,0.557,���k��,7.1,��
2023/01/21,02:00,0.562,0.813,0.510,1.045,0.719,0.321,0.583,0.556,�k�k��,6.9,��
2023/01/21,02:10,0.562,0.816,0.510,1.045,0.720,0.321,0.585,0.557,���k��,6.4,��
2023/01/21,02:20,0.562,0.814,0.510,1.047,0.721,0.322,0.584,0.558,���k��,8.8,��
2023/01/21,02:30,0.561,0.814,0.512,1.043,0.722,0.322,0.583,0.557,���k��,7.7,��
2023/01/21,02:40,0.561,0.814,0.512,1.045,0.721,0.323,0.584,0.555,�k��,7.4,��
2023/01/21,02:50,0.563,0.814,0.511,1.045,0.720,0.321,0.580,0.556,�k��,5.5,��
2023/01/21,03:00,0.563,0.814,0.511,1.045,0.721,0.322,0.582,0.556,�k�k��,4.1,��
2023/01/21,03:10,0.562,0.812,0.513,1.043,0.721,0.320,0.582,0.557,�k�k��,5.0,��
2023/01/21,03:20,0.562,0.814,0.511,1.042,0.723,0.324,0.582,0.556,�k�k��,4.4,��
2023/01/21,03:30,0.561,0.815,0.512,1.043,0.720,0.322,0.582,0.557,�k�k��,4.5,��
2023/01/21,03:40,0.562,0.813,0.512,1.045,0.719,0.322,0.583,0.556,�k��,4.6,��
2023/01/21,03:50,0.561,0.812,0.511,1.045,0.721,0.322,0.584,0.556,�k��,3.4,��
2023/01/21,04:00,0.563,0.814,0.511,1.043,0.722,0.321,0.582,0.556,���k��,3.4,��
2023/01/21,04:10,0.563,0.814,0.511,1.043,0.721,0.322,0.582,0.555,���k��,6.0,��
2023/01/21,04:20,0.561,0.815,0.511,1.042,0.723,0.321,0.582,0.556,��,8.3,��
2023/01/21,04:30,0.564,0.812,0.511,1.044,0.721,0.322,0.581,0.556,��,4.9,��
2023/01/21,04:40,0.560,0.813,0.512,1.041,0.724,0.323,0.583,0.557,���k��,7.1,��
2023/01/21,04:50,0.561,0.813,0.509,1.043,0.719,0.320,0.583,0.555,���k��,5.2,��
2023/01/21,05:00,0.561,0.814,0.511,1.044,0.719,0.322,0.582,0.556,���k��,4.7,��
2023/01/21,05:10,0.561,0.813,0.513,1.044,0.720,0.322,0.582,0.553,���k��,7.2,��
2023/01/21,05:20,0.560,0.814,0.511,1.045,0.722,0.321,0.584,0.555,���k��,8.6,��
2023/01/21,05:30,0.563,0.813,0.511,1.042,0.721,0.320,0.582,0.554,���k��,8.3,��
2023/01/21,05:40,0.562,0.812,0.509,1.045,0.719,0.322,0.584,0.554,���k��,7.5,��
2023/01/21,05:50,0.562,0.812,0.511,1.043,0.721,0.321,0.581,0.555,���k��,8.6,��
2023/01/21,06:00,0.562,0.812,0.510,1.041,0.721,0.321,0.582,0.554,���k��,6.7,��
2023/01/21,06:10,0.560,0.813,0.509,1.043,0.720,0.320,0.582,0.556,���k��,5.8,��
2023/01/21,06:20,0.561,0.813,0.510,1.044,0.721,0.321,0.581,0.556,���k��,5.3,��
2023/01/21,06:30,0.561,0.814,0.508,1.043,0.719,0.321,0.582,0.553,���k��,5.6,��
2023/01/21,06:40,0.560,0.811,0.509,1.044,0.720,0.321,0.583,0.554,���k��,3.8,��
2023/01/21,06:50,0.561,0.813,0.509,1.043,0.719,0.321,0.583,0.555,�k��,3.4,��
2023/01/21,07:00,0.560,0.813,0.511,1.043,0.722,0.321,0.583,0.553,�k�k��,3.5,��
2023/01/21,07:10,0.561,0.813,0.511,1.045,0.719,0.320,0.583,0.555,�k,2.5,��
2023/01/21,07:20,0.561,0.815,0.509,1.042,0.720,0.320,0.583,0.554,�k�k��,2.0,��
2023/01/21,07:30,0.559,0.811,0.509,1.046,0.719,0.321,0.582,0.554,���k��,1.6,��
2023/01/21,07:40,0.561,0.813,0.511,1.043,0.720,0.321,0.582,0.553,��,3.2,��
2023/01/21,07:50,0.560,0.815,0.510,1.042,0.720,0.322,0.581,0.555,���k��,3.2,��
2023/01/21,08:00,0.561,0.813,0.511,1.043,0.721,0.320,0.582,0.554,�k��,2.2,��
2023/01/21,08:10,0.561,0.813,0.510,1.045,0.721,0.322,0.582,0.554,�k��,3.5,��
2023/01/21,08:20,0.560,0.813,0.509,1.046,0.721,0.321,0.584,0.555,�k��,7.4,��
2023/01/21,08:30,0.562,0.814,0.511,1.046,0.721,0.321,0.582,0.554,�k��,9.1,��
2023/01/21,08:40,0.562,0.813,0.510,1.045,0.721,0.321,0.582,0.554,�k��,9.3,��
2023/01/21,08:50,0.561,0.812,0.510,1.044,0.722,0.321,0.584,0.554,���k��,8.3,��
2023/01/21,09:00,0.562,0.816,0.512,1.044,0.722,0.321,0.583,0.554,�k��,7.8,��
2023/01/21,09:10,0.562,0.814,0.512,1.046,0.721,0.321,0.582,0.553,���k��,4.4,��
2023/01/21,09:20,0.562,0.816,0.512,1.043,0.720,0.321,0.583,0.554,���k��,6.6,��
2023/01/21,09:30,0.561,0.815,0.512,1.044,0.723,0.321,0.583,0.554,���k��,7.4,��
2023/01/21,09:40,0.562,0.815,0.510,1.044,0.722,0.320,0.584,0.554,�k��,6.0,��
2023/01/21,09:50,0.561,0.814,0.511,1.046,0.721,0.322,0.585,0.556,�k��,5.2,��
2023/01/21,10:00,0.562,0.814,0.513,1.046,0.723,0.322,0.584,0.555,�k�k��,4.9,��
2023/01/21,10:10,0.563,0.816,0.512,1.045,0.722,0.321,0.582,0.554,���k��,6.0,��
2023/01/21,10:20,0.562,0.816,0.511,1.045,0.721,0.323,0.582,0.554,�k��,8.0,��
2023/01/21,10:30,0.563,0.816,0.513,1.045,0.724,0.322,0.582,0.555,�k��,8.8,��
2023/01/21,10:40,0.564,0.815,0.511,1.046,0.726,0.322,0.584,0.555,���k��,7.1,��
2023/01/21,10:50,0.565,0.816,0.512,1.046,0.722,0.322,0.585,0.555,���k��,9.9,��
2023/01/21,11:00,0.563,0.815,0.513,1.046,0.722,0.322,0.584,0.556,���k��,10.1,��
2023/01/21,11:10,0.563,0.815,0.514,1.044,0.721,0.322,0.583,0.555,���k��,6.6,��
2023/01/21,11:20,0.564,0.818,0.512,1.047,0.722,0.322,0.582,0.555,���k��,7.4,��
2023/01/21,11:30,0.564,0.816,0.512,1.047,0.722,0.321,0.583,0.555,���k��,10.0,��
2023/01/21,11:40,0.564,0.818,0.512,1.045,0.723,0.321,0.583,0.555,���k��,9.7,��
2023/01/21,11:50,0.563,0.817,0.512,1.046,0.724,0.321,0.582,0.555,��,8.6,��
2023/01/21,12:00,0.563,0.817,0.514,1.047,0.723,0.323,0.582,0.554,���k��,8.6,��
2023/01/21,12:10,0.565,0.815,0.513,1.045,0.724,0.323,0.584,0.555,���k��,7.7,��
2023/01/21,12:20,0.564,0.815,0.512,1.046,0.723,0.322,0.584,0.556,���k��,7.4,��
2023/01/21,12:30,0.566,0.813,0.513,1.046,0.723,0.323,0.584,0.557,��,5.8,��
2023/01/21,12:40,0.563,0.814,0.513,1.047,0.723,0.323,0.583,0.556,��,4.9,��
2023/01/21,12:50,0.563,0.815,0.513,1.047,0.725,0.322,0.583,0.555,��,6.0,��
2023/01/21,13:00,0.564,0.815,0.512,1.047,0.723,0.320,0.582,0.556,���k��,5.8,��
2023/01/21,13:10,0.563,0.814,0.515,1.048,0.723,0.321,0.583,0.556,�k��,6.3,��
2023/01/21,13:20,0.563,0.814,0.512,1.049,0.724,0.321,0.583,0.556,�k��,6.0,��
2023/01/21,13:30,0.563,0.814,0.513,1.047,0.723,0.322,0.585,0.556,�k��,6.9,��
2023/01/21,13:40,0.563,0.815,0.511,1.047,0.724,0.321,0.583,0.556,���k��,4.6,��
2023/01/21,13:50,0.563,0.815,0.513,1.047,0.725,0.323,0.583,0.556,���k��,3.9,��
2023/01/21,14:00,0.562,0.816,0.512,1.047,0.722,0.323,0.584,0.555,���k��,6.3,��
2023/01/21,14:10,0.565,0.814,0.513,1.047,0.723,0.323,0.584,0.557,�k��,6.3,��
2023/01/21,14:20,0.565,0.814,0.512,1.046,0.722,0.322,0.583,0.556,�k��,7.1,��
2023/01/21,14:30,0.564,0.816,0.512,1.048,0.725,0.322,0.583,0.555,�k��,6.3,��
2023/01/21,14:40,0.564,0.818,0.514,1.046,0.726,0.322,0.585,0.556,�k��,8.0,��
2023/01/21,14:50,0.563,0.816,0.513,1.045,0.724,0.322,0.584,0.556,�k��,8.2,��
2023/01/21,15:00,0.564,0.816,0.513,1.046,0.722,0.323,0.584,0.554,�k��,6.7,��
2023/01/21,15:10,0.564,0.817,0.513,1.046,0.723,0.322,0.584,0.555,�k��,7.1,��
2023/01/21,15:20,0.565,0.817,0.512,1.046,0.724,0.322,0.585,0.553,�k��,6.7,��
2023/01/21,15:30,0.563,0.816,0.512,1.047,0.725,0.322,0.583,0.555,�k��,8.5,��
2023/01/21,15:40,0.564,0.817,0.509,1.048,0.724,0.321,0.583,0.555,���k��,8.2,��
2023/01/21,15:50,0.563,0.817,0.513,1.046,0.724,0.321,0.584,0.555,���k��,7.1,��
2023/01/21,16:00,0.563,0.816,0.512,1.045,0.724,0.321,0.583,0.554,���k��,6.0,��
2023/01/21,16:10,0.562,0.816,0.512,1.047,0.724,0.322,0.583,0.555,���k��,5.5,��
2023/01/21,16:20,0.564,0.816,0.514,1.044,0.723,0.321,0.584,0.553,�k��,4.9,��
2023/01/21,16:30,0.562,0.816,0.512,1.048,0.725,0.320,0.583,0.555,�k��,5.3,��
2023/01/21,16:40,0.562,0.816,0.512,1.046,0.722,0.322,0.584,0.554,�k��,4.4,��
2023/01/21,16:50,0.562,0.815,0.511,1.048,0.725,0.321,0.583,0.555,�k��,4.7,��
2023/01/21,17:00,0.563,0.815,0.511,1.045,0.724,0.321,0.584,0.552,�k��,5.2,��
2023/01/21,17:10,0.561,0.816,0.512,1.046,0.722,0.321,0.583,0.553,�k��,5.5,��
2023/01/21,17:20,0.562,0.817,0.511,1.048,0.724,0.321,0.581,0.555,�k��,5.0,��
2023/01/21,17:30,0.561,0.814,0.509,1.046,0.723,0.321,0.584,0.554,���k��,3.9,��
2023/01/21,17:40,0.562,0.816,0.511,1.046,0.724,0.321,0.582,0.555,���k��,4.9,��
2023/01/21,17:50,0.561,0.816,0.510,1.047,0.722,0.322,0.583,0.553,���k��,4.9,��
2023/01/21,18:00,0.561,0.817,0.511,1.043,0.724,0.321,0.581,0.554,���k��,4.2,��
2023/01/21,18:10,0.561,0.816,0.512,1.046,0.725,0.322,0.583,0.555,���k��,4.1,��
2023/01/21,18:20,0.561,0.816,0.511,1.046,0.723,0.321,0.582,0.552,���k��,3.8,��
2023/01/21,18:30,0.563,0.813,0.511,1.045,0.722,0.321,0.581,0.554,���k��,4.1,��
2023/01/21,18:40,0.562,0.815,0.512,1.047,0.723,0.320,0.582,0.553,���k��,3.9,��
2023/01/21,18:50,0.562,0.816,0.512,1.045,0.724,0.321,0.583,0.555,���k��,5.5,��
2023/01/21,19:00,0.561,0.815,0.511,1.044,0.724,0.320,0.581,0.553,���k��,4.7,��
2023/01/21,19:10,0.560,0.815,0.511,1.047,0.721,0.320,0.582,0.554,���k��,5.8,��
2023/01/21,19:20,0.562,0.815,0.511,1.045,0.724,0.320,0.582,0.554,���k��,4.9,��
2023/01/21,19:30,0.561,0.816,0.510,1.045,0.722,0.320,0.582,0.555,���k��,4.7,��
2023/01/21,19:40,0.561,0.814,0.511,1.046,0.723,0.320,0.582,0.554,���k��,3.1,��
2023/01/21,19:50,0.562,0.815,0.511,1.047,0.724,0.320,0.581,0.553,��,3.0,��
2023/01/21,20:00,0.561,0.816,0.511,1.045,0.721,0.320,0.582,0.552,���k��,3.8,��
2023/01/21,20:10,0.561,0.815,0.512,1.045,0.722,0.321,0.582,0.553,���k��,3.0,��
2023/01/21,20:20,0.560,0.816,0.511,1.047,0.724,0.319,0.581,0.554,���k��,4.1,��
2023/01/21,20:30,0.562,0.816,0.510,1.046,0.722,0.320,0.579,0.553,���k��,3.9,��
2023/01/21,20:40,0.561,0.815,0.509,1.045,0.720,0.320,0.580,0.554,��,3.3,��
2023/01/21,20:50,0.559,0.813,0.509,1.044,0.722,0.321,0.580,0.553,���k��,3.2,��
2023/01/21,21:00,0.559,0.816,0.509,1.048,0.723,0.320,0.580,0.554,���k��,3.8,��
2023/01/21,21:10,0.560,0.816,0.512,1.046,0.721,0.320,0.581,0.554,��,4.5,��
2023/01/21,21:20,0.561,0.814,0.511,1.046,0.723,0.320,0.581,0.552,���k��,4.9,��
2023/01/21,21:30,0.562,0.815,0.510,1.047,0.722,0.319,0.580,0.552,���k��,4.7,��
2023/01/21,21:40,0.560,0.815,0.511,1.044,0.722,0.321,0.580,0.553,���k��,5.8,��
2023/01/21,21:50,0.561,0.817,0.510,1.047,0.723,0.319,0.580,0.552,���k��,5.0,��
2023/01/21,22:00,0.561,0.815,0.510,1.046,0.723,0.320,0.580,0.552,���k��,4.9,��
2023/01/21,22:10,0.559,0.814,0.507,1.045,0.722,0.320,0.581,0.553,���k��,6.4,��
2023/01/21,22:20,0.561,0.816,0.511,1.044,0.722,0.319,0.581,0.554,���k��,6.3,��
2023/01/21,22:30,0.561,0.814,0.510,1.046,0.722,0.321,0.583,0.554,���k��,6.3,��
2023/01/21,22:40,0.561,0.815,0.509,1.044,0.722,0.321,0.580,0.553,���k��,6.6,��
2023/01/21,22:50,0.561,0.815,0.509,1.045,0.723,0.321,0.580,0.552,���k��,6.7,��
2023/01/21,23:00,0.561,0.814,0.510,1.046,0.720,0.321,0.580,0.553,���k��,6.6,��
2023/01/21,23:10,0.560,0.813,0.509,1.047,0.723,0.321,0.581,0.553,���k��,6.6,��
2023/01/21,23:20,0.561,0.814,0.510,1.045,0.721,0.319,0.579,0.551,���k��,6.3,��
2023/01/21,23:30,0.561,0.815,0.511,1.044,0.722,0.321,0.581,0.552,���k��,6.4,��
2023/01/21,23:40,0.560,0.814,0.510,1.045,0.721,0.320,0.582,0.553,�k��,6.0,��
2023/01/21,23:50,0.561,0.815,0.510,1.046,0.722,0.321,0.581,0.552,���k��,6.4,��
